Русенско нераб. Т/Х сензор Measurements

Back to Overview

Timestamp Temperature Humidity
5/4/2026 5:45:57 PM 21,7 C 50.0%
5/4/2026 5:38:54 PM 21,5 C 50.0%
5/4/2026 5:31:50 PM 21,5 C 50.0%
5/4/2026 5:24:48 PM 21,6 C 49.0%
5/4/2026 5:17:43 PM 21,6 C 49.0%
5/4/2026 5:10:39 PM 21,4 C 49.0%
5/4/2026 5:03:35 PM 21,8 C 50.0%
5/4/2026 4:56:31 PM 21,8 C 50.0%
5/4/2026 4:49:27 PM 21,9 C 50.0%
5/4/2026 4:42:24 PM 21,7 C 50.0%
5/4/2026 4:35:21 PM 21,5 C 50.0%
5/4/2026 4:28:17 PM 21,3 C 50.0%
5/4/2026 4:21:13 PM 21,2 C 50.0%
5/4/2026 4:14:11 PM 21,4 C 50.0%
5/4/2026 4:07:10 PM 21,4 C 51.0%
5/4/2026 4:00:07 PM 21,4 C 51.0%
5/4/2026 3:53:03 PM 21,1 C 52.0%
5/4/2026 3:46:01 PM 20,7 C 52.0%
5/4/2026 3:38:58 PM 20,4 C 52.0%
5/4/2026 3:31:56 PM 20,5 C 52.0%
5/4/2026 3:24:55 PM 20,6 C 52.0%
5/4/2026 3:17:52 PM 20,3 C 52.0%
5/4/2026 3:10:49 PM 20,1 C 52.0%
5/4/2026 3:03:45 PM 20,1 C 53.0%
5/4/2026 2:56:41 PM 20,0 C 53.0%
5/4/2026 2:49:38 PM 19,9 C 53.0%
5/4/2026 2:42:35 PM 20,0 C 53.0%
5/4/2026 2:35:31 PM 19,8 C 54.0%
5/4/2026 2:28:27 PM 19,5 C 54.0%
5/4/2026 2:21:26 PM 19,3 C 54.0%
5/4/2026 2:14:21 PM 19,2 C 55.0%
5/4/2026 2:07:18 PM 19,0 C 55.0%
5/4/2026 2:00:15 PM 19,0 C 56.0%
5/4/2026 1:53:14 PM 18,8 C 57.0%
5/4/2026 1:46:11 PM 18,5 C 57.0%
5/4/2026 1:39:06 PM 18,3 C 57.0%
5/4/2026 1:32:05 PM 18,2 C 57.0%
5/4/2026 1:25:02 PM 18,0 C 58.0%
5/4/2026 1:17:58 PM 17,8 C 58.0%
5/4/2026 1:10:57 PM 17,7 C 58.0%
5/4/2026 1:03:52 PM 17,5 C 58.0%
5/4/2026 12:56:50 PM 17,5 C 58.0%
5/4/2026 12:49:46 PM 17,5 C 59.0%
5/4/2026 12:42:42 PM 17,1 C 59.0%
5/4/2026 12:35:41 PM 16,9 C 59.0%
5/4/2026 12:28:37 PM 16,8 C 59.0%
5/4/2026 12:21:34 PM 16,7 C 59.0%
5/4/2026 12:14:33 PM 16,3 C 60.0%
5/4/2026 12:07:29 PM 16,0 C 60.0%
5/4/2026 12:00:25 PM 15,9 C 60.0%
5/4/2026 11:53:23 AM 15,8 C 61.0%
5/4/2026 11:46:18 AM 15,4 C 61.0%
5/4/2026 11:39:14 AM 15,2 C 62.0%
5/4/2026 11:32:11 AM 14,8 C 62.0%
5/4/2026 11:25:06 AM 14,6 C 63.0%
5/4/2026 11:18:04 AM 14,2 C 63.0%
5/4/2026 11:11:03 AM 14,0 C 63.0%
5/4/2026 11:03:58 AM 13,7 C 64.0%
5/4/2026 10:56:55 AM 13,4 C 64.0%
5/4/2026 10:49:50 AM 13,1 C 65.0%
5/4/2026 10:42:48 AM 12,8 C 66.0%
5/4/2026 10:35:46 AM 12,5 C 66.0%
5/4/2026 10:28:44 AM 12,3 C 66.0%
5/4/2026 10:21:42 AM 12,1 C 67.0%
5/4/2026 10:14:38 AM 11,8 C 67.0%
5/4/2026 10:07:35 AM 11,5 C 68.0%
5/4/2026 10:00:31 AM 11,2 C 68.0%
5/4/2026 9:53:35 AM 10,9 C 68.0%
5/4/2026 9:46:26 AM 10,6 C 68.0%
5/4/2026 9:39:21 AM 10,4 C 68.0%
5/4/2026 9:32:17 AM 10,1 C 68.0%
5/4/2026 9:25:16 AM 9,9 C 68.0%
5/4/2026 9:18:11 AM 9,7 C 69.0%
5/4/2026 9:11:09 AM 9,4 C 69.0%
5/4/2026 9:04:08 AM 9,2 C 70.0%
5/4/2026 8:57:05 AM 8,9 C 70.0%
5/4/2026 8:50:03 AM 8,6 C 70.0%
5/4/2026 8:42:57 AM 8,4 C 70.0%
5/4/2026 8:35:54 AM 8,1 C 70.0%
5/4/2026 8:28:51 AM 7,9 C 70.0%
5/4/2026 8:21:49 AM 7,8 C 70.0%
5/4/2026 8:14:48 AM 7,6 C 70.0%
5/4/2026 8:07:45 AM 7,3 C 71.0%
5/4/2026 8:00:41 AM 7,1 C 71.0%
5/4/2026 7:53:37 AM 6,9 C 71.0%
5/4/2026 7:46:35 AM 6,7 C 71.0%
5/4/2026 7:39:33 AM 6,6 C 71.0%
5/4/2026 7:32:29 AM 6,4 C 71.0%
5/4/2026 7:25:28 AM 6,3 C 71.0%
5/4/2026 7:18:25 AM 6,1 C 71.0%
5/4/2026 7:11:21 AM 6,0 C 71.0%
5/4/2026 7:04:18 AM 5,9 C 70.0%
5/4/2026 6:57:15 AM 5,8 C 70.0%
5/4/2026 6:50:14 AM 5,9 C 70.0%
5/4/2026 6:43:11 AM 5,8 C 70.0%
5/4/2026 6:36:08 AM 5,8 C 70.0%
5/4/2026 6:29:05 AM 5,7 C 70.0%
5/4/2026 6:22:02 AM 5,6 C 70.0%
5/4/2026 6:14:59 AM 5,7 C 70.0%
5/4/2026 6:07:56 AM 5,7 C 70.0%
5/4/2026 6:00:54 AM 5,8 C 69.0%
5/4/2026 5:53:50 AM 5,8 C 69.0%
5/4/2026 5:46:48 AM 5,9 C 69.0%
5/4/2026 5:39:45 AM 5,9 C 69.0%
5/4/2026 5:32:42 AM 6,0 C 69.0%
5/4/2026 5:25:39 AM 6,0 C 68.0%
5/4/2026 5:18:35 AM 6,0 C 68.0%
5/4/2026 5:11:32 AM 6,0 C 68.0%
5/4/2026 5:04:30 AM 6,0 C 68.0%
5/4/2026 4:57:26 AM 6,0 C 68.0%
5/4/2026 4:50:25 AM 6,0 C 68.0%
5/4/2026 4:43:20 AM 6,0 C 68.0%
5/4/2026 4:36:20 AM 6,1 C 67.0%
5/4/2026 4:29:17 AM 6,1 C 67.0%
5/4/2026 4:22:13 AM 6,1 C 67.0%
5/4/2026 4:15:10 AM 6,1 C 67.0%
5/4/2026 4:08:07 AM 6,2 C 67.0%
5/4/2026 4:01:03 AM 6,1 C 66.0%
5/4/2026 3:54:00 AM 6,2 C 66.0%
5/4/2026 3:46:56 AM 6,2 C 66.0%
5/4/2026 3:39:54 AM 6,2 C 66.0%
5/4/2026 3:32:50 AM 6,4 C 65.0%
5/4/2026 3:25:47 AM 6,5 C 65.0%
5/4/2026 3:18:43 AM 6,6 C 65.0%
5/4/2026 3:11:41 AM 6,8 C 65.0%
5/4/2026 3:04:38 AM 6,9 C 64.0%
5/4/2026 2:57:37 AM 7,0 C 64.0%
5/4/2026 2:50:33 AM 7,2 C 64.0%
5/4/2026 2:43:29 AM 7,3 C 64.0%
5/4/2026 2:36:27 AM 7,4 C 64.0%
5/4/2026 2:29:23 AM 7,4 C 63.0%
5/4/2026 2:22:20 AM 7,5 C 63.0%
5/4/2026 2:15:18 AM 7,6 C 63.0%
5/4/2026 2:08:16 AM 7,5 C 63.0%
5/4/2026 2:01:14 AM 7,5 C 63.0%
5/4/2026 1:54:11 AM 7,6 C 63.0%
5/4/2026 1:47:09 AM 7,6 C 63.0%
5/4/2026 1:40:05 AM 7,6 C 62.0%
5/4/2026 1:33:03 AM 7,6 C 62.0%
5/4/2026 1:26:00 AM 7,7 C 62.0%
5/4/2026 1:18:56 AM 7,9 C 61.0%
5/4/2026 1:11:54 AM 8,1 C 61.0%
5/4/2026 1:04:49 AM 8,2 C 61.0%
5/4/2026 12:57:46 AM 8,4 C 61.0%
5/4/2026 12:50:44 AM 8,4 C 61.0%
5/4/2026 12:43:40 AM 8,5 C 60.0%
5/4/2026 12:36:37 AM 8,5 C 60.0%
5/4/2026 12:29:36 AM 8,7 C 60.0%
5/4/2026 12:22:32 AM 8,8 C 60.0%
5/4/2026 12:15:30 AM 9,0 C 59.0%
5/4/2026 12:08:27 AM 9,2 C 59.0%
5/4/2026 12:01:23 AM 9,3 C 59.0%